{"data":{"norad_id":67405,"epoch":"2026-05-25T01:56:15.339840Z","epoch_age_seconds":61887,"freshness":"FRESH","line1":"1 67405U 26005B   26145.08073310  .00001628  00000+0  68764-4 0  9996","line2":"2 67405  42.9971 166.2116 0000721 267.7830  92.2939 15.27522807 20388","mean_motion":15.27522807,"eccentricity":7.21e-5,"inclination_deg":42.9971,"raan_deg":166.2116,"arg_perigee_deg":267.783,"mean_anomaly_deg":92.2939,"bstar":6.8764e-5,"rev_number":2038,"period_min":94.270278217849,"perigee_km":482.72565393465,"apogee_km":483.71506166564,"semimajor_km":6861.3573578001,"source":"CELESTRAK","updated_at":"2026-05-25T13:38:21.552138Z"}}